Simultaneous Nadir Overpasses (SNOs) Predictions

Prediction of SNOs between AQUA and METOP-A Satellite Orbit:

Table of predicted SNOs for the next 14.0 days since TLE Epoch: 10/30/2021
Index Date (AQUA) Time (AQUA) Lat,Lon (AQUA) SZA (AQUA ) Date (METOP-A) Time (METOP-A) Lat,Lon (METOP-A) SZA (METOP-A ) Distance(km) Time Diff (sec)
1 11/01/2021 12:33:09 77.87, -26.34 92.75 11/01/2021 12:32:29 77.89, -26.34 92.77 1.61 40
2 11/01/2021 13:22:36 -77.93, 141.07 87.18 11/01/2021 13:23:10 -77.90, 141.05 87.21 2.52 34
3 11/04/2021 08:07:26 77.91, 39.92 93.67 11/04/2021 08:06:47 77.90, 40.05 93.66 3.44 39
4 11/04/2021 08:56:52 -77.92,-152.46 86.32 11/04/2021 08:57:28 -77.91,-152.55 86.32 2.03 36
5 11/07/2021 03:41:42 77.88, 106.50 94.48 11/07/2021 03:41:06 77.91, 106.43 94.52 3.39 36
6 11/07/2021 04:31:09 -77.93, -86.07 85.46 11/07/2021 04:31:47 -77.92, -86.17 85.47 2.35 38
7 11/09/2021 23:15:59 77.91, 172.81 95.33 11/09/2021 23:15:25 77.91, 172.78 95.33 0.69 34
8 11/10/2021 00:05:26 -77.95, -19.76 84.62 11/10/2021 00:06:06 -77.93, -19.81 84.65 3.46 40
9 11/12/2021 18:50:14 77.91,-120.77 96.10 11/12/2021 18:49:43 77.91,-120.89 96.11 2.87 31



Historial Predications of SNOs between AQUA and METOP-A
